Satellite: NOAA-11
Catalog number: 19531
Epoch time:      08066.27377380
Element set:      69
Inclination:      098.7972 deg
RA of node:       157.0399 deg
Eccentricity:    0.0011631
Arg of perigee:   006.0268 deg
Mean anomaly:     354.1028 deg
Mean motion:   14.14866953 rev/day
Decay rate:      -1.40e-06 rev/day^2
Epoch rev:             335
Checksum:              300

Satellite: NOAA-12
Catalog number: 21263
Epoch time:      08066.44507506
Element set:     576
Inclination:      098.7664 deg
RA of node:       068.4094 deg
Eccentricity:    0.0013345
Arg of perigee:   065.9466 deg
Mean anomaly:     294.3117 deg
Mean motion:   14.25520180 rev/day
Decay rate:       1.18e-06 rev/day^2
Epoch rev:           87375
Checksum:              314

Satellite: MET-3/5
Catalog number: 21655
Epoch time:      08066.25466547
Element set:     400
Inclination:      082.5587 deg
RA of node:       177.0887 deg
Eccentricity:    0.0012213
Arg of perigee:   271.6491 deg
Mean anomaly:     088.3236 deg
Mean motion:   13.17014530 rev/day
Decay rate:        5.1e-07 rev/day^2
Epoch rev:           79603
Checksum:              299

Satellite: MET-2/21
Catalog number: 22782
Epoch time:      08066.45042598
Element set:      81
Inclination:      082.5490 deg
RA of node:       193.0581 deg
Eccentricity:    0.0021753
Arg of perigee:   214.9516 deg
Mean anomaly:     145.0223 deg
Mean motion:   13.83626538 rev/day
Decay rate:        1.3e-07 rev/day^2
Epoch rev:           73292
Checksum:              293

Satellite: OKEAN-4
Catalog number: 23317
Epoch time:      08065.99877523
Element set:     524
Inclination:      082.5364 deg
RA of node:       051.3446 deg
Eccentricity:    0.0023975
Arg of perigee:   105.7711 deg
Mean anomaly:     254.6186 deg
Mean motion:   14.82584019 rev/day
Decay rate:       2.20e-06 rev/day^2
Epoch rev:           72299
Checksum:              316

Satellite: NOAA-14
Catalog number: 23455
Epoch time:      08066.50136265
Element set:      50
Inclination:      098.9561 deg
RA of node:       138.6526 deg
Eccentricity:    0.0010339
Arg of perigee:   077.2334 deg
Mean anomaly:     282.9993 deg
Mean motion:   14.13734931 rev/day
Decay rate:      -2.61e-06 rev/day^2
Epoch rev:           67984
Checksum:              320

Satellite: SICH-1
Catalog number: 23657
Epoch time:      08065.95054299
Element set:     322
Inclination:      082.5286 deg
RA of node:       192.3484 deg
Eccentricity:    0.0025664
Arg of perigee:   098.6773 deg
Mean anomaly:     261.7337 deg
Mean motion:   14.81557168 rev/day
Decay rate:       2.23e-06 rev/day^2
Epoch rev:           67493
Checksum:              339

Satellite: NOAA-15
Catalog number: 25338
Epoch time:      08066.39991599
Element set:     377
Inclination:      098.5506 deg
RA of node:       060.8959 deg
Eccentricity:    0.0010369
Arg of perigee:   347.3702 deg
Mean anomaly:     012.7230 deg
Mean motion:   14.24688697 rev/day
Decay rate:       -4.4e-07 rev/day^2
Epoch rev:           51016
Checksum:              336

Satellite: RESURS
Catalog number: 25394
Epoch time:      08066.53365183
Element set:     872
Inclination:      098.4031 deg
RA of node:       115.1061 deg
Eccentricity:    0.0001944
Arg of perigee:   112.3827 deg
Mean anomaly:     247.7561 deg
Mean motion:   14.24153980 rev/day
Decay rate:       -1.5e-07 rev/day^2
Epoch rev:           50183
Checksum:              279

Satellite: FENGYUN1
Catalog number: 25730
Epoch time:      08065.92455652
Element set:     355
Inclination:      098.7179 deg
RA of node:       045.2236 deg
Eccentricity:    0.0022064
Arg of perigee:   100.9099 deg
Mean anomaly:     259.4557 deg
Mean motion:   14.07706645 rev/day
Decay rate:       5.43e-06 rev/day^2
Epoch rev:           45443
Checksum:              311

Satellite: OKEAN-0
Catalog number: 25860
Epoch time:      08066.03500538
Element set:     306
Inclination:      097.7451 deg
RA of node:       061.1766 deg
Eccentricity:    0.0000543
Arg of perigee:   078.0889 deg
Mean anomaly:     282.0383 deg
Mean motion:   14.73506038 rev/day
Decay rate:        6.9e-07 rev/day^2
Epoch rev:           46420
Checksum:              291

Satellite: NOAA-16
Catalog number: 26536
Epoch time:      08066.35234872
Element set:     837
Inclination:      099.1505 deg
RA of node:       053.3087 deg
Eccentricity:    0.0010896
Arg of perigee:   150.5279 deg
Mean anomaly:     209.6506 deg
Mean motion:   14.12472383 rev/day
Decay rate:        8.9e-07 rev/day^2
Epoch rev:           38425
Checksum:              322

Satellite: NOAA-17
Catalog number: 27453
Epoch time:      08066.46369232
Element set:     834
Inclination:      098.5457 deg
RA of node:       134.0204 deg
Eccentricity:    0.0012460
Arg of perigee:   051.3980 deg
Mean anomaly:     308.8309 deg
Mean motion:   14.23953621 rev/day
Decay rate:       -6.3e-07 rev/day^2
Epoch rev:           29618
Checksum:              304

